Stündliche Wetter Bolshie Knyazikovcy

Heute, 29 Juli, Donnerstag

Zeit Temperatur Niederschläge Wind Luftdruck Luftfeuchtigkeit
00:00 +22°C° 0.1 mm 1 m/S 744 mmHg 73%
01:00 +20°C° 0.1 mm 2 m/S 744 mmHg 78%
02:00 +20°C° 0 mm 2 m/S 744 mmHg 80%
03:00 +19°C° 0.2 mm 2 m/S 744 mmHg 85%
04:00 +19°C° 0.2 mm 2 m/S 744 mmHg 89%
05:00 +19°C° 0.2 mm 1 m/S 744 mmHg 94%
06:00 +20°C° 0.1 mm 1 m/S 744 mmHg 90%
07:00 +22°C° 0.1 mm 1 m/S 744 mmHg 86%
08:00 +23°C° 0 mm 1 m/S 744 mmHg 83%
09:00 +22°C° 0.4 mm 1 m/S 743 mmHg 86%
10:00 +21°C° 0.4 mm 2 m/S 743 mmHg 90%
11:00 +20°C° 0.4 mm 2 m/S 743 mmHg 93%
12:00 +22°C° 0.6 mm 3 m/S 743 mmHg 87%
13:00 +24°C° 0.6 mm 3 m/S 743 mmHg 81%
14:00 +25°C° 0.6 mm 4 m/S 743 mmHg 75%
15:00 +25°C° 0.5 mm 4 m/S 743 mmHg 76%
16:00 +25°C° 0.5 mm 4 m/S 743 mmHg 76%
17:00 +25°C° 0.5 mm 4 m/S 743 mmHg 76%
18:00 +24°C° 0.1 mm 3 m/S 743 mmHg 77%
19:00 +22°C° 0.1 mm 3 m/S 743 mmHg 79%
20:00 +21°C° 0.1 mm 2 m/S 743 mmHg 80%
21:00 +20°C° 0 mm 2 m/S 743 mmHg 81%
22:00 +20°C° 0 mm 2 m/S 743 mmHg 82%
23:00 +19°C° 0 mm 2 m/S 744 mmHg 82%

Morgen, 30 Juli, Freitag

Zeit Temperatur Niederschläge Wind Luftdruck Luftfeuchtigkeit
00:00 +19°C° 0 mm 2 m/S 744 mmHg 84%
01:00 +18°C° 0 mm 2 m/S 744 mmHg 86%
02:00 +17°C° 0 mm 2 m/S 744 mmHg 88%
03:00 +17°C° 0 mm 2 m/S 743 mmHg 87%
04:00 +17°C° 0 mm 3 m/S 743 mmHg 86%
05:00 +17°C° 0 mm 3 m/S 743 mmHg 86%
06:00 +18°C° 0 mm 3 m/S 743 mmHg 81%
07:00 +19°C° 0 mm 4 m/S 743 mmHg 77%
08:00 +20°C° 0 mm 5 m/S 744 mmHg 72%
09:00 +21°C° 0 mm 5 m/S 744 mmHg 65%
10:00 +22°C° 0 mm 5 m/S 744 mmHg 57%
11:00 +23°C° 0 mm 6 m/S 744 mmHg 49%
12:00 +23°C° 0 mm 6 m/S 744 mmHg 49%
13:00 +24°C° 0 mm 6 m/S 743 mmHg 49%
14:00 +24°C° 0 mm 6 m/S 743 mmHg 49%
15:00 +23°C° 0 mm 6 m/S 743 mmHg 54%
16:00 +22°C° 0 mm 5 m/S 742 mmHg 58%
17:00 +22°C° 0 mm 5 m/S 742 mmHg 63%
18:00 +21°C° 0 mm 4 m/S 742 mmHg 66%
19:00 +20°C° 0 mm 4 m/S 742 mmHg 70%
20:00 +19°C° 0 mm 3 m/S 742 mmHg 74%
21:00 +18°C° 0 mm 3 m/S 742 mmHg 76%
22:00 +17°C° 0 mm 3 m/S 742 mmHg 77%
23:00 +16°C° 0 mm 3 m/S 742 mmHg 79%

übermorgen, 31 Juli, Samstag

Zeit Temperatur Niederschläge Wind Luftdruck Luftfeuchtigkeit
00:00 +16°C° 0 mm 3 m/S 742 mmHg 80%
01:00 +14°C° 0 mm 3 m/S 742 mmHg 80%
02:00 +14°C° 0 mm 3 m/S 742 mmHg 81%
03:00 +14°C° 0 mm 3 m/S 742 mmHg 82%
04:00 +13°C° 0 mm 3 m/S 742 mmHg 83%
05:00 +13°C° 0 mm 3 m/S 742 mmHg 84%
06:00 +16°C° 0 mm 3 m/S 742 mmHg 78%
07:00 +17°C° 0 mm 3 m/S 743 mmHg 72%
08:00 +19°C° 0 mm 4 m/S 743 mmHg 66%
09:00 +21°C° 0 mm 4 m/S 743 mmHg 62%
10:00 +22°C° 0 mm 4 m/S 743 mmHg 57%
11:00 +23°C° 0 mm 5 m/S 743 mmHg 53%
12:00 +25°C° 0 mm 5 m/S 743 mmHg 52%
13:00 +26°C° 0 mm 5 m/S 743 mmHg 51%
14:00 +27°C° 0 mm 5 m/S 743 mmHg 50%
15:00 +27°C° 0 mm 4 m/S 743 mmHg 51%
16:00 +27°C° 0 mm 3 m/S 742 mmHg 53%
17:00 +27°C° 0 mm 3 m/S 742 mmHg 54%
18:00 +26°C° 0 mm 2 m/S 742 mmHg 57%
19:00 +24°C° 0 mm 1 m/S 741 mmHg 61%
20:00 +23°C° 0 mm 1 m/S 741 mmHg 64%
21:00 +21°C° 0.3 mm 2 m/S 741 mmHg 72%
22:00 +20°C° 0.3 mm 2 m/S 742 mmHg 80%
23:00 +19°C° 0.3 mm 3 m/S 742 mmHg 88%

1 August, Sonntag

Zeit Temperatur Niederschläge Wind Luftdruck Luftfeuchtigkeit
00:00 +18°C° 0.2 mm 3 m/S 742 mmHg 91%
01:00 +18°C° 0.2 mm 2 m/S 742 mmHg 93%
02:00 +18°C° 0.2 mm 2 m/S 741 mmHg 96%
03:00 +17°C° 0 mm 2 m/S 741 mmHg 96%
04:00 +17°C° 0 mm 3 m/S 742 mmHg 96%
05:00 +16°C° 0 mm 3 m/S 742 mmHg 96%
06:00 +17°C° 0 mm 4 m/S 742 mmHg 90%
07:00 +18°C° 0 mm 4 m/S 742 mmHg 84%
08:00 +19°C° 0 mm 4 m/S 743 mmHg 77%
09:00 +21°C° 0 mm 5 m/S 743 mmHg 70%
10:00 +22°C° 0 mm 5 m/S 743 mmHg 63%
11:00 +23°C° 0 mm 5 m/S 743 mmHg 55%
12:00 +23°C° 0 mm 5 m/S 743 mmHg 54%
13:00 +25°C° 0 mm 5 m/S 743 mmHg 52%
14:00 +26°C° 0 mm 5 m/S 743 mmHg 51%
15:00 +25°C° 0 mm 5 m/S 743 mmHg 53%
16:00 +25°C° 0 mm 4 m/S 743 mmHg 55%
17:00 +25°C° 0 mm 4 m/S 743 mmHg 57%
18:00 +23°C° 0 mm 4 m/S 743 mmHg 61%
19:00 +22°C° 0 mm 3 m/S 743 mmHg 64%
20:00 +20°C° 0 mm 3 m/S 743 mmHg 68%
21:00 +20°C° 0 mm 2 m/S 743 mmHg 70%
22:00 +19°C° 0 mm 2 m/S 743 mmHg 73%
23:00 +19°C° 0 mm 1 m/S 743 mmHg 76%

2 August, Montag

Zeit Temperatur Niederschläge Wind Luftdruck Luftfeuchtigkeit
00:00 +19°C° 0.6 mm 1 m/S 742 mmHg 81%
01:00 +18°C° 0.6 mm 1 m/S 742 mmHg 86%
02:00 +18°C° 0.6 mm 1 m/S 742 mmHg 91%
03:00 +18°C° 1.3 mm 1 m/S 741 mmHg 93%
04:00 +18°C° 1.3 mm 1 m/S 741 mmHg 95%
05:00 +18°C° 1.3 mm 1 m/S 741 mmHg 97%
06:00 +17°C° 3.3 mm 2 m/S 740 mmHg 97%
07:00 +17°C° 3.3 mm 2 m/S 740 mmHg 98%
08:00 +16°C° 3.3 mm 3 m/S 740 mmHg 98%
09:00 +16°C° 2.2 mm 3 m/S 740 mmHg 98%
10:00 +15°C° 2.2 mm 4 m/S 740 mmHg 97%
11:00 +15°C° 2.2 mm 4 m/S 740 mmHg 97%
12:00 +15°C° 0.8 mm 4 m/S 741 mmHg 96%
13:00 +15°C° 0.8 mm 4 m/S 741 mmHg 95%
14:00 +14°C° 0.8 mm 4 m/S 741 mmHg 94%
15:00 +14°C° 0.3 mm 4 m/S 742 mmHg 95%
16:00 +14°C° 0.3 mm 4 m/S 742 mmHg 95%
17:00 +14°C° 0.3 mm 4 m/S 742 mmHg 95%
18:00 +14°C° 0.2 mm 4 m/S 742 mmHg 95%
19:00 +14°C° 0.2 mm 4 m/S 742 mmHg 95%
20:00 +14°C° 0.2 mm 4 m/S 742 mmHg 94%
21:00 +14°C° 0.1 mm 4 m/S 743 mmHg 94%
22:00 +14°C° 0.1 mm 4 m/S 743 mmHg 94%
23:00 +14°C° 0.1 mm 4 m/S 743 mmHg 94%

3 August, Dienstag

Zeit Temperatur Niederschläge Wind Luftdruck Luftfeuchtigkeit
00:00 +13°C° 0.2 mm 4 m/S 743 mmHg 94%
01:00 +13°C° 0.2 mm 4 m/S 744 mmHg 95%
02:00 +13°C° 0.2 mm 4 m/S 744 mmHg 96%
03:00 +12°C° 0 mm 4 m/S 744 mmHg 96%
04:00 +12°C° 0 mm 3 m/S 744 mmHg 96%
05:00 +11°C° 0 mm 3 m/S 744 mmHg 96%
06:00 +13°C° 0 mm 3 m/S 745 mmHg 92%
07:00 +14°C° 0 mm 4 m/S 745 mmHg 89%
08:00 +15°C° 0 mm 4 m/S 746 mmHg 85%
09:00 +17°C° 0 mm 4 m/S 746 mmHg 77%
10:00 +18°C° 0 mm 4 m/S 746 mmHg 69%
11:00 +20°C° 0 mm 4 m/S 746 mmHg 60%
12:00 +20°C° 0.1 mm 3 m/S 746 mmHg 59%
13:00 +21°C° 0.1 mm 3 m/S 746 mmHg 58%
14:00 +21°C° 0.1 mm 3 m/S 746 mmHg 57%
15:00 +21°C° 0.2 mm 3 m/S 746 mmHg 59%
16:00 +21°C° 0.2 mm 2 m/S 746 mmHg 60%
17:00 +21°C° 0.2 mm 2 m/S 746 mmHg 62%
18:00 +20°C° 0.2 mm 1 m/S 746 mmHg 68%
19:00 +19°C° 0.2 mm 1 m/S 746 mmHg 74%
20:00 +16°C° 0.2 mm 1 m/S 747 mmHg 80%
21:00 +16°C° 0 mm 1 m/S 747 mmHg 82%
22:00 +15°C° 0 mm 1 m/S 747 mmHg 84%
23:00 +14°C° 0 mm 1 m/S 747 mmHg 86%
Mehr zeigen

Wir brauchen deine Erlaubnis

Meteoprog und unser Service Anbieter werden persönliche Daten aufbewahren, so wie Cookies, Geräte Bezeichnung oder ähnliche Technologien von deinem Gerät und Prozess, so wie Persönliche Daten Inhalte und Werbungen, genauso wie social Media und den Verkehr zu analysieren.

  • Aufbewahrung und/oder Zugang zu deiner Geräte Informationen.

    Cookies, Geräte Bezeichnung oder andere Informationen, können aufbewahrt oder Zugang zu deinem Gerät erhalten, für den Grund, der oben angegeben wird.

  • Personalisierte Werbung und Inhalte, Messungen, Einblick in das Publikum und Produkt Entwicklung.

    Werbungen und Inhalte können personalisiert werden, basierend auf ein Profil. Mehr Daten können besser personalisierte Werbungen und Inhalte hinzufügen. Werbung und Inhalte können gezeigt und gemessen werden. Einblicke über das Publikum, welche die Werbung gesehen haben und den Inhalt, können abgeleitet werden. So wie Daten können genutzt werden, um es zu verbessern oder die Benutzer Erfahrung zu verbessern das System und die Software.

Wenn du “Ich stimme zu” klickst, erlaubst du uns, die Cookies zu benutzen die Geräte Bezeichnung, den Web oder ähnliche Technologien zu benutzen. Deine Settings, können in deinem Gerät bei deinem Browser geändert werden.

Für den bestimmten Zweck, berechtigten Interessen beruhen darauf, mehr als auf den Inhalt. Du kannst mehr darüber in unseren Privaten und Cookie Politik lesen.